RH
77 83 89 96 99 97 99 101 95 91 88 83 74 63 57 55 56 62 65 62 58 52 46 37 25 24 29 33 35 35 33 31 28 31 35 35 35 35 35 34 30 26 24 25 28 30 31 32 34 37 38 37 37 37 37 36 36 36 35 34 33 32 30 29 27 27 25 24 23 22 21 20 19 18 16 16 15 14 13 12 11 10 10 9 9
77 81 90 98 96 95 101 102 97 94 91 87 81 71 64 63 63 67 68 62 53 42 31 23 19 21 25 29 33 31 28 26 26 32 38 40 43 46 47 46 42 38 34 33 33 34 34 36 38 41 44 45 43 41 40 39 38 37 37 37 36 36 35 34 33 32 31 29 28 27 27 26 25 24 23 22 21 20 19 18 16 15 14 13 13
62 70 86 98 92 90 99 101 96 94 88 83 81 74 68 65 62 63 61 51 38 27 20 20 22 26 30 31 29 24 21 19 22 33 43 49 52 52 51 49 45 42 40 39 38 36 36 37 40 44 50 56 58 55 51 48 45 43 42 40 40 39 38 37 36 35 34 33 32 31 30 30 28 28 27 26 25 24 24 23 22 21 19 19 18
43 46 59 77 84 88 95 95 92 89 84 80 78 76 72 67 59 54 47 35 25 20 20 24 28 31 32 29 25 23 23 23 26 37 49 55 56 55 54 53 51 49 49 50 51 50 46 43 43 48 55 61 65 67 65 62 59 56 53 50 48 46 45 43 42 40 38 38 36 35 34 34 35 34 33 32 31 30 28 27 26 25 24 23 22
47 42 43 53 69 87 96 97 96 94 88 81 74 68 64 58 53 46 37 29 25 25 26 26 27 27 27 26 29 32 32 29 30 40 52 59 61 61 60 58 57 57 57 59 62 62 59 56 52 50 52 56 60 64 66 65 64 64 65 64 61 59 56 53 52 49 47 46 43 41 39 38 38 38 39 38 36 35 34 33 32 30 28 28 27
51 53 50 49 58 73 82 87 91 88 81 73 64 59 54 50 49 44 37 32 30 30 28 24 22 21 20 26 37 41 36 29 30 41 53 60 63 65 63 59 57 57 56 57 61 64 65 65 64 61 58 59 62 64 65 65 64 64 67 68 67 69 70 68 66 64 60 57 53 49 46 45 42 40 42 43 41 40 40 40 39 36 34 33 32
46 51 54 56 58 62 65 69 74 74 70 66 62 60 57 52 50 45 39 35 31 28 24 20 19 18 23 39 52 48 36 29 32 43 54 60 64 64 61 57 53 49 47 46 48 55 62 65 67 68 67 67 69 69 69 69 67 68 71 72 72 75 75 73 73 71 67 65 61 55 53 53 53 49 48 50 49 47 47 48 48 46 43 41 40
41 42 54 63 58 59 69 73 71 68 65 64 62 61 58 54 51 45 39 34 29 25 21 17 16 20 35 56 58 44 36 35 38 45 51 53 52 51 51 54 54 49 48 49 45 44 53 61 64 67 69 69 68 68 68 68 67 69 74 77 78 78 77 78 78 74 71 71 68 61 57 56 55 54 54 54 53 53 54 55 56 56 53 48 45
31 29 45 60 60 67 78 75 66 60 58 57 57 58 56 52 49 44 39 35 29 24 19 14 15 25 39 49 45 36 36 42 46 50 51 45 42 46 49 53 58 59 59 60 52 40 40 48 56 62 65 64 61 59 61 63 62 64 71 75 76 73 72 77 81 82 85 87 80 73 68 63 57 56 57 56 56 56 57 58 59 59 57 53 50
23 21 30 41 46 52 53 49 51 56 58 58 58 57 53 48 48 46 42 37 29 23 18 15 31 53 51 38 35 36 40 48 52 52 50 41 39 53 64 62 62 64 60 54 48 46 47 45 44 48 48 45 42 42 44 46 45 47 55 62 64 63 62 64 69 76 87 91 86 82 78 70 63 60 62 63 61 58 57 56 56 56 54 52 51
26 22 23 24 25 28 33 41 51 56 56 54 52 55 55 55 59 58 52 46 37 31 23 18 37 70 72 49 39 43 53 61 59 53 50 43 37 47 62 65 60 58 52 40 32 38 45 38 33 35 31 26 24 23 24 25 24 26 31 36 41 46 52 56 58 61 67 69 67 67 65 60 54 53 58 64 66 67 66 61 57 56 55 53 53
33 30 27 26 26 28 35 42 45 47 51 48 45 55 63 66 72 71 64 61 56 49 41 28 26 46 62 60 57 66 76 75 65 58 55 49 41 38 41 43 40 37 36 27 16 16 20 18 20 24 22 18 17 16 15 16 16 17 19 21 25 28 35 46 52 56 59 60 58 55 52 48 41 37 40 44 50 61 68 67 62 58 55 55 55
35 33 32 32 32 32 33 34 32 36 46 49 50 59 61 57 58 60 60 64 66 64 58 45 33 33 41 51 63 77 82 74 66 63 59 55 52 41 29 23 20 20 19 16 11 11 12 12 13 14 15 16 16 16 16 15 15 15 15 15 17 18 21 27 34 38 41 41 40 36 31 28 24 21 22 21 22 28 34 36 35 30 27 28 28
38 35 34 34 33 31 31 30 27 27 31 33 34 38 41 39 38 38 41 50 62 70 65 53 48 46 44 51 66 76 75 70 67 65 63 60 52 37 25 20 18 18 16 15 14 15 14 12 11 10 12 16 17 17 18 17 16 16 16 16 17 17 17 18 19 21 21 20 20 19 17 17 17 16 16 15 14 14 14 14 14 13 12 12 12
40 36 34 33 32 31 30 28 27 25 23 24 25 25 26 28 29 29 32 40 54 71 75 65 62 62 56 55 67 75 75 74 70 64 60 55 45 35 30 27 23 22 22 21 21 21 19 17 15 14 14 16 18 18 18 17 17 17 17 17 17 17 17 18 19 19 19 18 17 17 17 17 17 16 16 16 16 15 15 14 14 13 13 13 12
41 38 38 38 38 38 36 34 32 29 27 26 26 27 26 26 27 27 28 32 43 60 74 76 74 73 68 64 69 74 76 77 76 72 65 59 53 50 45 38 32 28 25 25 25 26 27 25 23 22 21 20 21 20 18 18 18 19 19 19 18 18 18 19 21 21 20 20 18 17 17 16 17 17 18 18 17 17 17 16 16 15 15 15 15
48 47 46 46 47 47 45 42 38 36 35 32 29 29 30 29 28 26 26 30 39 52 65 70 70 69 67 65 65 67 72 79 83 82 76 67 62 57 52 48 44 38 33 31 29 30 32 32 30 30 29 29 28 26 24 23 20 19 19 17 17 17 18 20 22 21 21 20 18 18 18 18 18 18 18 18 18 18 18 17 17 17 16 15 15
78 76 73 68 67 66 62 56 49 43 39 38 39 40 39 34 31 28 25 26 29 34 38 40 40 39 37 36 36 38 45 54 60 59 56 52 49 48 49 51 50 47 44 40 36 34 34 33 33 33 33 35 37 36 33 30 25 21 20 20 20 20 22 25 24 22 22 22 21 21 20 20 20 20 20 19 19 19 18 18 17 17 16 16 16
98 97 93 90 88 87 83 78 73 68 62 59 59 63 64 59 52 46 43 41 40 39 36 33 30 29 26 25 25 25 28 32 35 38 41 43 44 48 53 55 53 51 50 46 43 42 40 40 42 40 37 37 37 37 35 31 28 26 26 27 28 28 29 31 28 25 25 24 23 23 22 21 21 20 20 19 19 19 18 17 16 16 15 14 14
102 102 100 97 93 88 82 75 70 73 84 90 87 87 90 89 83 78 76 75 70 65 59 53 50 49 47 43 41 40 41 42 43 46 50 52 51 54 60 62 58 55 53 50 48 46 45 47 48 41 36 35 33 31 32 33 33 33 33 33 33 33 33 32 31 28 27 25 24 23 21 21 20 20 19 18 18 17 16 15 14 13 12 11 11
90 89 92 96 97 92 84 75 66 65 77 87 89 91 98 100 98 95 88 77 64 57 52 49 49 49 49 48 44 41 45 51 54 54 54 55 55 58 63 66 64 60 57 52 48 42 38 44 50 45 38 39 41 38 36 37 37 37 37 35 33 32 30 29 29 29 27 24 22 20 19 18 17 16 16 15 14 13 12 11 10 10 9 9 9
54 55 61 72 83 89 87 83 80 75 72 71 74 84 96 99 97 94 85 70 58 52 51 51 50 46 48 56 59 58 59 61 61 59 55 52 55 61 65 65 63 62 58 52 47 40 33 36 47 49 45 47 52 50 43 40 41 42 41 36 31 29 29 28 27 26 25 22 19 17 16 14 13 12 11 10 9 8 8 8 8 8 8 8 8
34 39 44 50 60 70 76 80 83 84 79 73 71 78 85 88 88 86 80 72 66 63 63 67 67 60 57 65 74 78 80 81 80 77 69 63 65 69 68 66 65 65 62 55 47 41 38 37 40 46 51 54 54 51 47 45 48 47 42 34 31 29 28 26 25 23 21 19 16 14 12 10 9 8 7 6 6 5 5 6 6 6 7 7 7
36 39 43 48 53 60 69 75 77 79 80 80 78 77 75 73 76 80 80 79 77 74 70 70 72 67 59 56 58 59 61 68 81 85 78 71 71 70 68 66 67 68 66 61 51 45 45 44 42 45 51 53 52 53 55 57 55 47 37 31 29 27 25 23 21 19 17 16 13 11 9 8 6 6 5 5 5 5 5 6 6 6 6 7 7
44 44 46 50 55 63 73 77 76 77 80 83 83 81 77 73 73 77 80 79 75 70 67 68 71 72 71 69 67 61 53 55 71 84 87 86 84 80 77 75 75 76 77 73 69 63 59 57 56 56 59 60 64 68 67 61 51 39 30 27 24 22 21 20 18 17 16 14 12 10 8 7 6 6 5 5 5 5 5 5 5 6 6 6 6
46 47 50 51 53 57 64 69 71 74 76 77 77 78 78 75 73 73 75 77 77 73 72 75 74 73 77 80 81 78 69 63 68 78 88 94 96 96 97 96 94 97 97 94 92 89 82 76 74 73 72 71 70 66 58 47 37 29 24 21 18 17 17 17 16 16 14 13 11 10 8 7 6 6 5 5 5 5 5 6 6 6 6 6 6
66 67 68 70 69 69 70 72 74 77 79 81 83 85 83 78 76 75 78 85 89 83 78 80 79 77 81 86 85 82 76 72 72 74 75 78 80 83 86 87 86 89 91 90 86 81 74 68 64 62 59 56 50 44 38 32 28 24 20 17 15 14 14 14 15 14 13 12 11 9 8 7 6 6 6 5 5 5 5 6 6 6 6 7 8
92 93 94 94 94 94 93 93 93 93 93 93 94 95 93 89 87 85 82 83 88 88 84 84 86 85 85 88 87 84 79 75 73 71 68 68 68 67 65 64 65 65 65 65 64 61 57 54 52 49 46 42 39 35 31 27 22 19 16 14 13 13 12 13 13 12 11 11 10 8 8 7 6 6 6 5 6 6 6 6 7 8 9 11 12
100 100 100 101 101 100 100 100 99 98 97 96 95 93 89 86 84 81 76 75 83 92 93 90 89 88 86 88 93 96 91 84 81 79 77 76 75 73 69 67 66 64 62 60 59 57 55 53 50 46 41 36 32 27 22 18 15 13 12 12 12 11 12 13 12 12 11 10 9 8 7 7 6 6 6 7 7 7 7 8 9 11 13 13 12
100 98 97 96 97 97 98 98 97 95 92 88 86 82 78 74 69 65 61 59 64 72 77 76 76 73 67 71 88 102 101 94 93 95 94 88 81 76 73 71 70 66 63 59 54 51 47 43 38 33 28 22 18 16 13 12 12 12 13 15 14 13 14 13 12 11 10 9 9 8 7 8 8 8 8 9 9 9 10 11 13 14 14 12 10
97 93 88 84 82 81 81 82 82 81 78 74 70 66 65 63 58 52 47 43 40 41 43 45 46 45 42 49 68 87 95 94 94 97 97 91 83 77 73 69 63 56 49 45 40 35 29 25 20 17 15 14 12 12 13 13 14 15 15 16 16 16 15 14 13 12 10 10 10 10 10 11 11 11 11 11 11 11 13 14 15 14 11 8 7
93 85 76 69 61 55 52 49 48 47 45 43 41 40 40 41 40 36 32 29 25 24 26 29 30 29 29 32 39 50 63 71 74 77 79 76 71 67 62 55 47 40 34 30 26 22 18 17 15 14 14 15 15 15 16 16 17 18 17 17 18 18 17 16 16 14 13 13 14 14 15 14 14 14 13 13 14 15 16 16 14 11 8 7 6
61 56 50 42 34 28 25 23 23 23 22 22 22 22 22 22 23 23 22 22 20 19 21 27 28 25 25 27 28 30 37 45 51 54 55 54 50 46 42 37 32 28 26 23 21 20 18 17 17 17 17 18 18 19 20 20 20 21 21 20 20 19 19 20 21 20 19 19 19 18 17 16 16 16 16 16 17 16 15 12 10 8 8 8 8
25 25 23 21 19 19 18 17 17 17 17 17 17 17 17 17 19 20 19 19 19 18 18 20 21 20 21 21 21 22 24 26 30 34 34 34 34 30 27 26 24 22 22 21 20 19 18 17 17 18 19 20 21 21 22 23 23 23 23 23 22 23 25 25 25 25 24 22 21 20 18 18 18 18 18 17 16 13 11 9 9 10 10 11 12
18 17 17 17 17 16 16 16 16 16 16 16 16 15 16 16 16 17 17 17 18 21 24 26 23 19 19 21 26 38 45 41 36 35 33 30 29 26 22 21 21 19 19 19 18 17 17 17 17 19 19 20 22 23 24 25 26 26 26 26 26 27 28 27 26 25 23 22 21 20 19 19 19 18 16 14 12 11 11 11 13 13 14 15 17
13 13 13 13 13 13 13 13 12 12 12 13 12 13 14 14 14 14 15 16 15 13 17 24 22 15 17 24 26 30 40 46 46 48 47 39 31 25 20 19 21 21 20 18 17 16 16 16 16 19 20 21 22 24 25 27 28 28 28 28 28 28 28 26 24 23 21 21 20 19 19 18 17 14 13 12 12 13 15 16 18 18 18 19 16
19 18 17 16 16 18 20 20 18 15 13 12 11 11 13 17 18 14 9 12 21 30 35 35 25 17 34 61 67 57 57 59 52 45 40 32 27 27 24 20 20 22 20 17 16 15 15 16 17 19 20 21 21 23 25 27 28 29 29 29 28 26 24 23 22 21 20 19 19 18 18 18 16 16 16 17 17 17 18 21 23 23 21 17 10
23 27 30 32 32 34 37 39 35 28 23 21 18 16 16 18 20 25 30 38 54 74 85 81 61 43 49 73 88 85 80 72 59 48 43 40 40 42 37 26 20 19 18 15 15 15 15 16 17 19 20 21 21 22 23 25 27 27 26 25 24 23 22 22 22 20 19 19 20 22 22 23 24 25 24 21 19 19 23 26 26 23 18 11 5
21 20 26 35 42 46 49 50 49 44 41 38 32 26 24 20 19 30 47 55 59 73 89 94 87 70 52 50 65 81 84 78 73 69 63 54 48 44 36 25 20 19 17 14 14 15 15 16 18 20 19 19 19 20 21 22 23 23 23 23 23 23 23 22 22 22 24 27 29 32 34 35 35 31 24 19 20 23 26 27 23 18 13 7 4
41 28 25 34 47 54 55 55 56 57 55 50 43 36 34 32 30 33 41 43 41 45 50 53 55 53 46 50 73 97 100 86 73 63 53 45 39 33 26 22 19 17 15 13 14 14 16 17 19 19 18 18 18 19 19 20 21 23 24 25 26 26 26 28 31 35 40 43 45 47 49 45 36 26 20 20 24 26 26 24 20 14 9 5 4
65 47 34 35 47 58 62 62 62 61 59 58 57 56 56 60 63 60 53 47 41 35 35 46 61 69 70 77 94 105 97 80 66 59 54 49 41 30 22 19 17 15 14 15 15 16 18 19 19 18 17 18 17 18 21 24 27 28 29 30 32 35 39 44 50 55 58 60 62 62 56 42 27 20 21 24 26 25 24 22 17 11 6 4 4
75 62 51 50 57 65 68 66 62 62 64 69 75 81 84 88 91 84 70 60 53 43 46 69 93 101 99 100 103 102 93 80 72 71 72 69 61 49 34 23 18 18 20 20 19 19 19 19 18 18 18 19 21 24 29 32 33 34 38 43 48 54 58 63 67 69 71 73 72 65 49 31 20 21 25 26 26 25 24 21 15 9 6 4 4
95 89 83 80 79 78 77 75 75 79 88 94 98 102 101 98 95 87 73 65 60 53 51 63 82 94 100 102 103 101 93 80 72 74 76 74 68 56 39 27 24 26 25 22 21 22 22 20 20 23 26 28 30 33 36 39 43 49 57 63 68 71 73 75 76 78 79 79 71 57 38 23 21 26 29 28 26 25 23 19 14 8 5 4 4
96 98 96 94 91 87 86 87 88 88 89 85 81 78 75 70 66 65 62 62 65 65 61 59 63 70 77 81 86 93 94 85 76 70 66 62 61 58 52 49 45 38 31 30 32 32 31 29 30 34 37 37 38 41 46 53 62 70 74 76 77 77 78 80 83 86 85 78 63 46 30 21 23 29 32 29 26 24 22 19 13 7 4 5 5
63 68 69 70 69 68 67 67 65 62 60 58 57 58 61 62 64 69 76 83 86 84 79 73 69 66 62 59 60 68 75 75 71 65 63 70 81 90 91 85 69 50 42 45 48 46 43 41 42 43 43 43 47 55 63 72 78 80 79 78 78 79 82 87 91 92 87 74 55 37 26 22 26 33 35 30 25 24 23 20 13 7 5 5 5
65 64 64 64 64 63 62 63 64 66 68 69 69 70 73 75 77 82 88 90 88 81 76 75 77 77 74 70 66 64 66 69 71 72 75 81 88 91 90 83 70 58 55 57 55 53 52 50 50 52 55 60 69 77 83 86 86 83 81 82 83 86 90 93 93 90 83 69 51 35 27 25 29 36 37 32 26 24 24 21 14 9 5 5 5
72 71 71 72 71 70 71 73 74 77 80 78 76 78 85 86 83 82 84 87 88 87 86 86 89 91 92 91 90 86 82 83 87 91 90 86 80 75 72 68 64 63 62 60 59 61 62 62 66 75 83 88 91 93 92 90 87 86 86 89 92 94 96 95 89 84 77 65 49 36 29 28 32 39 39 33 27 25 25 22 16 10 6 5 6
75 77 78 78 77 78 81 84 85 87 90 88 84 86 91 90 84 83 88 93 97 99 98 98 99 100 100 101 100 98 96 97 99 101 101 97 88 77 67 63 63 64 65 67 72 77 80 83 90 97 100 100 98 96 93 90 90 91 93 96 97 98 97 92 86 81 75 65 52 41 34 33 38 43 42 35 29 27 27 25 19 13 7 5 5
80 83 85 85 84 84 86 90 92 93 96 97 95 94 95 95 93 94 98 100 100 101 101 101 101 101 100 99 99 100 101 101 100 99 100 102 97 86 77 75 78 78 80 86 92 95 96 98 100 101 100 99 97 95 93 93 94 97 99 100 100 98 95 91 87 85 80 71 60 51 45 42 45 47 44 38 33 30 29 27 22 16 10 6 5
89 91 92 93 94 93 92 94 96 96 97 100 100 98 97 98 99 101 101 100 101 101 100 100 101 101 99 98 97 96 97 97 98 99 100 101 99 95 93 95 97 97 97 100 100 99 100 101 100 99 99 98 96 95 96 97 99 101 100 100 99 97 94 93 93 90 86 80 73 64 57 53 52 50 46 41 37 34 31 29 26 20 13 8 6
96 97 96 96 97 97 96 97 98 97 98 100 100 100 99 99 99 100 100 100 101 101 100 100 100 100 99 99 97 95 92 92 92 95 98 100 100 101 100 100 100 100 100 100 100 100 100 100 99 98 98 97 97 98 99 100 100 101 100 99 98 97 96 98 99 97 95 91 84 76 68 61 56 53 48 43 39 36 33 31 29 24 17 12 8
Wind_Speed
31 32 36 37 38 37 33 32 32 29 26 27 28 29 29 28 27 26 25 24 24 25 25 26 25 24 23 22 22 22 21 21 21 20 21 20 20 19 19 19 19 19 19 19 19 18 18 17 16 16 16 17 17 17 17 16 16 16 16 16 16 17 17 17 18 18 18 18 18 17 17 18 18 18 19 19 19 19 19 19 19 19 19 19 20
26 29 33 35 37 38 36 34 34 31 28 27 28 29 29 28 26 25 24 25 25 25 25 25 25 24 23 22 21 21 21 21 21 20 20 19 19 18 18 18 19 19 19 19 19 18 18 18 17 16 16 17 17 18 18 18 18 17 17 17 17 17 17 18 18 18 19 19 19 19 19 20 20 20 20 21 21 21 21 21 21 21 21 20 20
21 22 24 27 30 33 33 34 35 32 30 29 30 30 30 28 27 26 26 26 26 25 24 24 24 24 23 22 22 21 21 21 20 20 20 19 18 17 16 16 17 17 18 17 17 18 17 17 17 17 16 16 17 18 18 19 19 19 19 19 19 19 19 19 19 20 20 21 21 21 21 21 21 21 22 22 23 23 23 23 23 22 22 22 22
20 20 20 21 24 27 30 34 35 34 33 32 31 31 30 29 28 27 27 27 26 25 24 24 24 24 24 24 23 22 22 21 21 21 21 20 18 17 17 17 17 17 18 18 18 19 18 18 18 18 18 18 18 18 19 19 20 20 20 20 20 21 21 21 21 21 22 22 23 23 22 23 22 22 23 23 24 25 25 25 25 25 24 25 25
16 17 17 18 19 24 29 33 33 33 32 31 30 30 30 29 29 28 27 28 27 26 26 26 26 27 27 26 25 25 24 23 23 23 23 21 19 19 19 19 19 19 20 20 20 21 21 21 21 21 21 20 20 20 20 21 21 21 21 21 21 22 23 23 23 23 24 24 25 25 25 26 26 25 26 26 26 27 27 27 28 28 27 27 27
14 14 15 17 18 21 25 28 29 29 28 28 28 29 30 30 30 29 29 29 29 28 28 28 29 29 30 29 29 28 27 26 25 25 25 24 23 22 21 21 21 22 22 22 22 22 22 22 22 23 23 23 23 23 23 24 24 24 24 24 24 23 23 24 24 25 26 26 26 27 27 28 29 29 29 30 30 30 30 30 31 31 30 30 30
13 13 15 17 20 22 25 27 29 29 29 28 29 29 30 30 31 31 31 31 30 30 30 31 31 32 31 30 29 29 28 27 26 25 26 26 25 24 24 24 25 25 25 25 25 25 24 23 23 23 23 23 23 24 24 25 25 26 26 27 26 25 25 26 26 27 27 28 29 30 29 29 31 31 31 32 33 34 33 33 33 33 33 32 32
13 14 14 15 17 20 22 24 26 27 27 28 28 29 30 30 31 31 32 32 31 31 31 32 33 32 31 29 29 29 28 26 25 26 26 26 25 25 25 25 25 26 26 27 27 27 27 26 25 24 24 24 24 24 24 25 26 26 27 27 27 27 27 28 28 28 29 30 32 34 33 33 33 34 34 35 35 36 35 35 34 35 35 35 35
16 17 17 16 15 16 18 20 23 25 26 26 26 27 29 30 31 31 31 31 30 30 30 31 32 32 32 31 31 31 29 27 27 27 26 26 26 25 25 26 25 24 25 26 27 28 28 29 28 27 27 27 26 27 27 28 28 28 29 29 29 29 29 29 29 29 28 30 32 34 34 35 36 36 36 37 37 37 37 37 37 37 38 38 39
19 20 20 19 19 19 21 23 24 24 24 24 25 27 28 29 30 30 30 30 29 29 31 30 27 27 31 33 33 33 32 31 30 29 27 27 26 24 22 24 25 25 26 27 27 27 28 28 29 28 29 29 30 30 31 31 31 31 32 32 32 33 33 33 33 32 31 32 34 35 36 37 38 38 39 40 41 41 41 41 41 41 42 42 43
21 22 23 24 24 25 26 25 23 22 22 24 26 28 29 30 31 32 31 31 31 30 32 33 30 26 27 30 33 34 34 33 32 31 29 29 28 27 25 24 26 28 28 28 29 28 28 29 30 30 31 32 32 33 33 34 33 34 34 35 36 37 37 37 37 37 37 38 40 40 41 42 43 43 43 43 44 44 44 45 45 45 46 46 47
23 25 26 27 27 28 28 27 26 26 26 27 29 31 32 33 34 34 33 33 33 33 34 36 35 33 30 29 32 34 33 32 32 32 32 31 31 31 30 29 29 30 30 30 32 33 33 34 33 33 34 34 35 36 36 36 36 36 37 37 38 39 39 40 41 41 42 43 44 45 45 45 47 47 46 46 47 46 47 47 48 49 50 51 51
26 27 29 30 30 30 31 31 31 31 31 32 33 33 34 34 34 34 33 34 35 36 36 36 37 38 37 35 35 36 34 33 33 34 35 34 34 34 34 33 33 34 34 35 37 37 37 38 37 37 37 37 37 38 38 38 39 39 39 40 40 41 41 42 43 44 45 46 46 47 47 47 48 48 48 48 49 49 50 51 51 52 53 53 54
30 30 32 32 33 33 34 34 34 35 35 36 36 36 36 36 35 35 36 36 36 37 38 38 38 39 39 38 38 38 37 36 36 37 37 37 37 37 37 37 38 39 39 40 40 40 41 41 41 41 41 40 40 40 40 41 41 41 42 42 42 42 43 43 44 46 47 48 48 48 48 48 49 49 49 49 50 51 51 52 52 53 53 54 54
33 34 35 35 36 36 37 37 38 38 38 38 39 40 40 40 39 39 38 39 39 39 39 39 40 40 40 41 41 40 39 38 38 39 40 39 39 39 39 40 41 42 43 43 43 44 44 43 43 44 44 43 44 44 44 45 45 44 44 44 44 44 44 45 46 46 48 49 49 50 50 50 50 50 50 50 51 51 52 52 53 53 54 54 54
36 36 36 37 37 38 39 40 41 41 41 42 42 43 44 44 43 43 43 43 43 42 42 42 43 44 44 45 45 45 43 41 40 40 41 42 42 43 44 44 45 45 46 46 46 46 46 46 45 45 45 45 46 47 47 47 46 45 45 45 45 46 46 46 47 47 48 48 49 50 50 50 50 51 51 51 52 52 52 53 54 54 55 55 55
38 38 37 37 38 38 39 40 41 42 43 43 44 45 46 46 46 47 47 47 46 46 45 45 45 46 46 47 47 47 46 45 44 44 45 46 48 49 48 46 46 47 47 47 48 49 49 48 46 46 46 47 47 46 45 45 44 44 45 46 47 47 48 48 48 47 47 48 48 48 49 49 50 50 51 52 52 53 53 54 54 55 55 55 55
39 38 37 36 37 37 38 39 40 41 42 43 44 45 46 47 48 49 48 49 49 49 49 49 49 48 48 48 49 49 49 49 49 49 50 50 50 50 49 47 46 47 47 46 46 48 49 48 47 47 47 45 44 43 43 44 44 44 45 46 46 47 47 48 48 48 47 48 48 49 49 50 50 50 51 51 52 53 53 54 54 54 55 55 55
36 35 35 34 33 33 33 34 35 37 39 40 41 43 44 45 46 45 44 44 44 45 46 47 47 47 47 48 48 49 49 50 50 51 51 51 50 50 49 49 49 48 48 47 47 48 49 49 48 46 44 41 41 41 42 43 44 44 44 45 45 46 46 47 49 50 50 51 51 51 51 51 51 52 52 52 52 53 53 54 54 54 54 54 55
33 33 35 34 34 34 35 35 35 35 36 37 38 40 41 41 40 39 38 38 38 40 41 42 42 43 44 45 46 46 48 49 50 50 50 50 50 50 50 50 50 50 50 49 48 47 47 48 46 43 41 39 39 41 42 43 44 46 47 47 48 48 48 48 50 51 52 53 53 52 52 52 52 52 52 52 53 53 53 54 54 54 54 54 53
41 42 41 40 38 37 37 37 37 36 36 38 40 41 41 41 40 39 39 40 41 42 43 43 43 43 44 45 46 48 49 50 50 50 50 50 50 50 50 49 49 49 48 46 46 44 41 42 43 43 41 41 41 42 44 46 47 49 50 51 52 52 52 52 52 52 53 53 53 53 53 53 53 52 52 52 52 52 52 53 53 53 53 52 52
53 53 51 48 46 44 42 42 41 41 41 43 44 45 45 45 45 45 46 47 46 45 44 45 45 45 45 46 47 49 50 51 52 52 52 52 52 51 49 48 46 45 45 45 48 47 44 43 46 46 46 46 45 46 48 50 51 52 53 54 54 54 54 54 53 53 53 53 53 53 53 53 52 52 52 52 52 51 51 51 51 51 51 51 50
56 55 54 53 53 52 51 49 47 46 46 47 48 49 49 50 50 51 51 50 48 47 47 48 49 50 50 50 52 52 51 50 51 52 52 51 51 49 47 46 46 47 49 51 54 53 50 49 51 51 51 51 51 52 54 54 55 55 56 56 55 54 54 54 53 53 53 53 52 52 51 51 51 51 51 51 51 51 51 51 50 50 50 49 49
55 55 55 55 55 55 54 53 52 51 49 49 49 50 51 51 52 52 51 51 50 50 51 52 53 54 54 54 55 56 56 54 52 52 52 53 52 51 51 52 53 55 56 57 58 56 54 54 54 54 55 55 55 56 57 57 58 59 58 57 56 55 54 54 53 53 53 52 52 51 51 51 50 50 50 50 50 50 50 50 49 49 48 47 46
57 57 57 57 56 56 55 55 55 54 53 53 53 53 53 54 54 54 54 55 55 55 54 54 54 55 55 54 54 56 57 57 55 54 55 56 56 56 57 57 58 59 59 58 58 57 56 55 56 56 56 57 57 58 59 60 60 60 58 57 56 55 55 55 54 53 53 52 52 51 51 51 51 50 50 50 50 49 49 48 48 47 46 44 43
60 60 60 60 60 59 59 58 57 56 56 56 56 56 56 56 56 55 54 54 54 53 52 52 52 52 52 53 54 55 56 56 56 57 58 58 58 57 57 57 57 57 57 56 56 57 56 56 57 58 58 59 59 60 61 61 60 60 59 58 58 57 56 56 55 54 53 52 52 52 52 52 51 51 50 50 49 49 48 47 45 44 43 41 40
61 60 60 60 60 60 60 60 59 58 57 56 55 55 55 55 55 52 49 48 49 50 50 50 51 50 49 50 52 53 53 53 54 55 57 59 60 61 61 61 60 59 59 58 58 58 58 57 58 59 60 60 61 61 61 61 61 61 61 60 59 59 58 57 56 55 53 52 52 52 52 52 51 51 50 49 48 47 45 44 42 40 39 38 38
57 56 55 55 55 54 55 55 55 55 55 55 54 54 53 52 51 49 48 48 49 50 50 51 52 51 50 52 53 54 54 54 54 55 56 57 59 60 61 62 62 62 61 60 59 59 58 57 58 59 60 61 62 62 62 63 63 63 62 61 60 59 57 57 56 55 53 52 52 52 51 51 50 50 49 47 46 44 42 40 38 37 36 36 36
56 55 54 54 54 53 53 54 54 55 55 55 55 55 55 54 53 53 53 51 49 49 50 50 51 51 51 52 53 53 54 53 53 55 56 57 58 58 59 59 60 60 60 59 60 60 60 60 61 62 63 64 65 65 64 64 63 63 62 61 60 58 57 56 55 54 53 52 51 51 50 49 48 47 46 44 42 40 38 36 35 35 34 34 35
60 59 58 58 58 58 58 58 58 59 59 60 60 60 61 60 60 60 60 58 57 58 58 58 59 59 58 56 53 51 50 48 48 51 53 55 56 57 58 59 60 61 61 62 64 64 65 65 65 65 65 65 64 63 63 62 61 60 59 58 58 57 56 55 54 53 52 50 49 48 47 46 45 43 42 40 38 36 34 33 33 33 33 33 33
64 64 64 64 64 65 66 66 66 66 66 66 66 67 67 66 66 66 65 65 65 66 67 67 67 67 65 63 61 58 56 55 54 56 58 60 61 62 62 63 64 65 66 66 66 66 66 65 64 63 62 61 60 59 58 57 57 56 56 55 55 54 53 53 52 51 49 47 45 44 43 41 40 39 38 37 35 34 32 32 31 31 32 32 32
67 68 70 71 72 72 72 72 72 71 70 70 70 70 69 69 68 68 67 66 66 66 66 66 66 66 65 65 65 64 64 65 65 66 67 68 68 68 68 68 68 67 66 65 64 63 62 60 59 58 57 56 55 54 53 52 52 52 52 51 50 50 49 48 47 46 45 43 40 39 38 37 36 36 35 34 33 32 31 31 31 31 31 31 31
71 73 74 75 75 74 73 71 70 69 69 68 68 67 67 66 65 65 64 64 64 64 64 63 62 62 63 64 64 64 64 65 66 67 67 68 68 67 67 66 66 64 62 60 59 58 56 56 55 54 53 52 51 49 49 49 48 48 47 46 45 44 43 42 41 40 39 37 36 35 34 33 33 33 32 31 31 30 30 29 29 28 28 28 28
71 71 71 71 71 70 69 68 67 66 66 65 65 64 64 63 62 62 62 62 62 62 62 62 62 62 62 62 63 62 62 63 64 64 65 65 64 64 64 63 61 59 57 56 55 54 53 53 52 51 49 48 47 46 45 45 44 43 42 41 40 39 38 37 36 35 34 33 32 32 31 31 30 30 30 29 29 28 27 26 26 25 25 26 27
68 68 67 66 66 66 66 66 65 65 64 64 64 63 62 62 62 61 61 61 61 61 60 60 61 61 61 61 59 57 56 56 58 60 61 61 61 61 61 59 57 55 53 52 52 52 52 51 50 48 46 45 44 43 42 40 39 38 37 37 36 35 34 33 32 32 31 31 30 30 29 29 28 28 27 27 25 24 23 22 22 23 24 25 26
62 63 63 62 61 60 59 59 59 60 60 61 61 60 59 59 59 59 59 59 59 59 59 60 61 61 60 58 57 55 53 53 54 55 56 58 59 60 58 55 53 51 50 49 50 51 51 49 47 45 44 42 41 39 37 36 35 34 34 33 33 32 31 31 30 30 29 28 28 27 27 26 26 25 23 22 21 19 19 19 21 22 23 24 24
52 52 52 51 50 48 47 47 48 50 51 52 53 52 50 50 50 51 52 50 49 49 51 53 54 53 51 49 50 51 51 51 53 55 56 58 59 59 55 52 49 49 48 48 47 49 49 47 45 43 41 40 38 36 34 33 33 32 32 31 31 30 30 29 28 27 26 26 25 24 23 22 21 20 19 18 17 17 17 18 20 22 22 22 22
44 43 42 41 40 39 39 39 40 40 40 40 40 40 40 40 40 39 38 37 36 36 38 40 42 43 44 44 46 48 50 50 52 54 55 55 56 56 53 50 49 49 49 48 46 47 47 45 42 41 39 37 35 34 33 32 31 31 30 30 29 28 27 26 25 24 23 22 21 20 19 18 17 17 16 16 16 16 17 18 19 20 20 20 19
39 39 37 36 35 35 36 36 35 34 33 33 32 32 33 33 33 32 31 31 33 34 35 35 37 39 41 42 43 46 48 49 50 50 51 52 53 53 51 49 48 49 49 47 45 45 44 42 40 39 37 35 34 33 32 31 31 30 29 27 26 25 23 22 21 20 20 19 18 17 16 16 16 16 16 16 16 16 16 16 17 17 18 18 17
31 32 32 31 31 32 34 34 33 31 30 29 29 28 28 27 27 27 27 29 32 34 34 35 35 36 36 34 34 36 41 44 45 46 46 47 49 50 49 48 47 48 47 45 43 42 40 39 38 36 35 34 33 32 31 29 28 27 26 24 22 21 20 19 18 17 17 16 16 16 16 16 16 15 15 15 15 14 14 15 15 15 16 16 15
23 24 26 27 28 30 30 31 31 30 29 27 26 26 25 24 24 24 25 26 28 28 29 30 30 29 29 28 28 31 34 36 37 37 39 40 42 44 44 45 45 45 43 42 40 38 37 36 35 34 33 32 31 30 28 26 25 24 22 20 18 18 17 16 16 16 15 15 16 16 16 16 16 15 15 15 14 13 13 13 14 14 14 13 13
16 18 20 22 24 26 27 28 28 27 26 25 25 25 25 25 25 25 26 26 25 25 27 28 28 26 26 27 29 30 31 30 30 31 33 34 36 38 39 40 40 39 38 37 35 34 33 33 32 32 31 30 28 26 25 23 22 20 18 17 16 16 16 15 15 15 15 16 16 16 16 16 16 16 16 15 14 13 12 13 13 12 12 11 11
10 12 14 17 19 21 23 24 24 24 25 25 25 26 26 26 26 27 27 27 27 27 28 30 30 30 30 30 29 29 28 28 29 31 32 32 32 32 32 32 32 32 32 31 31 30 30 30 30 29 28 27 25 24 22 20 18 16 16 16 16 16 15 15 15 15 16 16 17 17 16 16 16 16 16 15 13 12 12 12 12 11 10 9 10
2 5 8 10 13 15 16 18 19 21 22 22 23 23 24 24 24 24 24 24 25 26 28 30 32 33 34 33 31 29 29 29 30 31 30 29 27 25 24 25 26 27 27 27 27 27 27 27 27 26 24 23 22 20 18 17 16 16 16 16 16 15 15 15 16 16 17 17 17 17 17 16 17 17 16 15 13 12 12 12 11 10 9 8 9
4 1 1 3 5 7 9 12 13 15 17 17 18 18 19 19 19 19 19 20 22 23 24 26 28 30 31 31 31 30 31 31 31 29 26 24 22 21 21 23 24 24 23 23 24 24 25 24 23 22 21 20 19 17 17 16 16 17 17 16 15 15 16 16 17 17 17 17 17 17 17 17 17 17 16 15 14 13 12 11 10 9 8 8 8
5 4 3 2 3 4 6 8 9 11 12 13 13 13 13 13 13 14 15 16 16 17 17 18 19 20 22 24 26 27 28 28 26 23 22 22 23 23 23 23 22 21 20 21 21 22 22 21 20 19 18 17 17 17 17 17 17 17 17 16 16 16 17 17 18 18 18 17 17 17 17 18 18 18 17 16 14 13 12 11 10 9 9 8 7
6 5 4 3 1 1 2 2 3 4 4 4 4 4 5 5 6 7 7 7 8 8 9 10 11 12 14 15 17 17 17 15 14 13 15 17 19 21 22 21 20 19 19 19 19 19 18 18 17 17 17 18 18 18 18 18 18 18 17 17 17 17 18 18 18 17 17 17 17 17 17 18 18 18 17 16 15 13 12 12 11 10 9 8 7
7 7 7 6 5 4 4 4 3 3 1 1 2 3 3 2 2 3 4 4 5 6 6 6 7 9 9 9 9 10 10 8 6 6 7 9 11 15 17 17 17 17 17 17 17 17 17 17 17 18 19 19 19 19 19 19 19 18 18 17 17 17 17 17 17 17 17 17 17 17 18 18 18 18 17 16 15 14 13 13 12 11 10 9 8
9 8 7 6 6 5 5 5 4 4 3 2 1 2 2 1 2 2 0 2 4 5 4 4 5 8 10 10 11 12 12 9 8 7 6 6 8 11 12 12 13 14 14 15 16 16 17 18 19 20 20 20 20 20 20 19 19 18 18 17 17 17 17 17 17 17 17 17 17 18 18 18 19 18 17 17 16 15 14 14 13 12 12 11 10
10 8 7 6 6 5 5 4 4 3 3 2 2 1 1 3 5 6 4 1 3 5 6 5 6 8 10 11 13 15 15 12 11 10 9 8 10 12 13 12 12 13 14 15 16 17 17 19 20 20 20 20 20 20 20 19 19 18 18 17 17 17 17 17 17 17 17 17 18 18 18 18 18 18 18 17 16 16 15 15 15 14 13 13 12
10 9 8 7 7 6 6 5 4 3 3 3 3 3 4 6 7 8 6 3 3 5 7 8 8 9 10 10 11 13 15 15 14 14 13 12 13 14 14 14 14 15 16 17 17 17 18 19 20 21 21 21 20 20 19 19 19 18 18 18 18 18 18 17 17 17 17 17 18 18 18 18 18 18 18 18 17 17 17 16 16 16 15 15 14
Wind_Direction
267 265 265 258 246 246 253 245 233 234 238 237 240 244 245 246 247 249 251 252 253 256 260 264 267 268 267 266 266 267 270 273 275 277 279 280 281 281 280 278 274 270 268 267 266 266 266 265 265 266 265 264 261 259 258 258 259 261 265 268 271 274 276 277 278 277 277 276 275 275 275 276 277 279 280 281 282 283 283 284 284 285 286 286 286
268 265 262 254 245 250 254 242 230 232 236 236 237 240 242 243 245 247 250 252 255 259 262 264 265 266 265 263 262 264 266 267 269 270 271 271 273 274 275 275 274 270 267 265 263 262 261 260 260 260 262 264 264 264 263 262 261 262 263 265 267 270 272 274 276 277 277 277 277 277 278 278 278 279 280 281 281 282 282 282 283 284 284 284 284
278 275 265 251 245 249 246 233 228 231 235 235 236 236 237 239 243 247 251 253 257 259 261 262 263 263 262 261 262 262 261 262 263 263 261 261 264 266 268 269 269 268 266 265 265 265 264 262 259 258 259 263 267 269 270 270 270 270 270 270 271 272 272 273 274 275 276 276 276 277 277 278 280 281 282 282 283 284 284 283 283 282 282 282 281
280 282 277 260 247 239 229 223 227 232 234 233 233 234 236 239 243 248 250 253 255 257 259 260 261 261 261 261 261 260 259 259 259 256 253 253 258 263 265 265 264 263 264 265 267 268 267 265 263 263 264 266 269 272 274 275 276 276 276 275 276 276 276 276 276 276 277 277 277 277 277 277 277 278 279 279 280 282 284 284 283 282 280 280 280
278 276 276 268 253 238 229 227 231 234 232 230 231 234 238 241 244 246 247 249 252 254 256 257 259 260 260 259 257 256 256 257 256 253 248 247 252 258 262 263 264 265 266 268 270 271 269 267 265 265 267 270 272 275 277 278 280 280 280 278 278 278 278 278 278 278 277 277 278 278 278 278 278 278 278 278 278 279 280 281 281 280 279 278 278
283 276 268 263 253 242 237 236 235 232 230 230 233 236 238 239 241 243 244 246 249 252 254 255 257 257 258 258 255 254 255 256 255 252 246 245 250 255 258 261 263 266 269 270 271 272 271 269 267 266 267 269 271 273 275 277 279 280 280 279 279 280 280 281 281 281 280 279 278 277 277 278 278 278 278 278 279 280 280 279 279 279 278 277 277
286 282 269 255 248 245 243 241 239 235 235 238 239 239 238 238 239 241 243 245 248 251 253 254 255 256 258 258 255 254 256 258 258 254 249 248 251 255 258 261 265 269 271 271 271 271 270 269 269 268 268 268 269 271 273 275 276 277 278 277 277 277 278 281 282 283 283 283 282 280 279 279 280 281 281 280 280 281 280 279 278 278 277 275 274
283 286 274 258 256 253 245 240 240 240 242 244 242 240 240 240 241 242 244 247 250 252 254 255 257 257 256 256 257 259 260 261 260 258 255 254 256 259 261 264 267 269 270 270 270 270 269 269 269 269 269 269 270 271 272 274 276 277 276 276 276 275 275 278 280 282 284 285 283 281 280 280 281 283 284 284 283 283 282 280 278 276 276 275 274
281 283 274 265 262 249 237 240 248 250 250 249 246 245 243 243 244 245 247 250 253 255 257 260 263 264 261 260 263 263 260 259 257 254 253 255 256 260 264 265 266 266 266 268 270 271 270 269 268 269 269 271 272 273 273 274 275 276 275 274 275 275 275 276 277 278 279 279 279 280 281 282 282 283 283 283 283 282 282 281 279 277 276 276 276
273 274 271 269 266 256 254 260 262 260 257 253 251 250 249 248 248 249 249 251 253 254 256 257 258 262 263 262 262 261 258 256 254 251 251 253 252 254 259 261 262 263 263 265 269 272 271 270 270 271 272 273 274 275 274 274 274 275 274 274 274 274 275 275 274 274 272 271 273 277 280 281 282 282 282 282 282 281 280 280 279 279 279 278 279
267 268 269 269 269 267 267 267 264 262 260 259 259 257 254 252 252 251 251 253 253 253 255 255 252 253 260 260 258 258 256 253 253 253 252 251 249 248 252 256 256 258 261 263 267 269 270 270 271 271 272 274 274 275 274 274 274 274 274 274 274 274 274 274 273 272 270 270 271 274 276 278 279 279 279 279 280 280 280 279 279 279 280 280 280
262 264 264 263 262 262 262 262 262 261 259 258 259 257 254 253 253 254 254 255 256 255 256 257 254 253 257 257 257 258 256 254 255 255 253 252 249 248 253 258 258 259 263 266 269 270 271 272 272 272 273 275 275 276 276 276 276 276 275 275 275 274 274 274 273 273 272 272 273 274 275 276 277 278 278 278 278 278 278 278 278 279 279 280 280
258 258 257 256 255 256 257 258 259 259 256 255 257 256 255 255 257 259 260 259 258 257 256 255 254 253 254 257 258 259 259 257 257 257 257 256 255 255 259 263 263 264 266 268 270 271 272 273 273 274 275 275 276 276 277 277 277 277 278 278 277 277 277 276 275 275 275 275 276 277 278 278 279 280 280 280 279 279 278 278 278 279 279 280 280
257 254 252 251 252 253 254 255 255 255 255 257 259 260 260 261 260 260 261 261 260 259 256 254 251 250 252 256 259 260 260 259 259 259 260 260 261 263 266 268 269 269 269 270 270 271 271 272 272 274 275 276 277 277 277 278 278 278 278 279 279 279 279 278 277 277 276 277 277 278 279 280 280 281 281 282 282 282 282 281 281 281 281 282 282
258 256 254 253 253 253 254 254 254 254 255 256 258 260 260 261 260 258 259 260 259 257 255 252 251 251 251 254 258 260 260 261 262 261 261 262 265 268 271 273 273 273 272 272 271 271 271 272 272 273 274 277 278 279 280 280 280 280 280 280 280 280 280 279 278 278 277 277 277 278 279 280 281 281 282 282 282 282 283 283 283 283 283 283 284
258 258 256 255 255 253 253 253 253 254 254 255 256 258 259 259 259 258 257 257 256 256 255 253 253 254 253 254 258 261 262 262 262 261 261 263 266 270 273 274 272 272 271 271 271 271 271 271 272 273 275 277 278 279 279 280 280 281 282 282 282 282 281 281 280 279 278 278 278 278 279 280 280 281 281 282 282 282 282 282 282 282 282 282 283
257 256 254 253 254 254 254 254 254 254 255 256 257 258 258 259 259 259 257 256 255 255 255 254 254 255 256 257 260 262 263 262 263 263 264 267 270 273 274 272 270 269 269 270 270 271 271 271 272 274 276 277 277 277 277 278 279 281 282 283 283 283 283 282 281 280 280 280 280 281 281 281 281 281 281 281 282 282 282 282 282 281 282 282 282
255 253 253 254 254 255 255 256 256 255 255 256 256 256 256 257 257 257 256 256 256 256 257 259 260 261 262 263 264 265 265 265 266 267 269 270 271 272 272 271 269 269 269 269 269 269 269 269 271 274 275 275 275 275 277 279 280 281 281 282 282 282 282 282 281 280 281 282 283 283 283 282 282 281 281 281 281 281 281 281 281 281 281 281 281
252 250 251 253 254 255 255 255 256 257 256 255 255 255 255 254 253 254 255 257 258 260 261 262 264 266 267 268 268 269 268 268 268 268 268 268 269 269 269 269 269 268 268 268 267 267 268 269 271 271 271 272 275 278 280 281 282 283 283 283 282 282 281 281 281 281 282 283 284 284 284 284 283 282 282 282 282 282 282 282 282 282 282 282 282
250 250 251 250 251 255 258 258 258 258 257 254 254 254 253 250 250 251 253 257 260 262 263 265 266 267 268 269 269 270 270 269 268 268 267 268 268 269 268 268 269 269 270 269 268 268 269 270 269 268 269 272 277 281 282 283 283 284 285 285 284 283 282 281 282 282 282 283 283 284 284 283 283 282 282 282 282 283 283 283 283 284 284 284 284
258 261 261 257 253 256 260 261 261 260 258 256 255 254 253 252 254 255 257 261 265 265 266 266 265 265 266 267 269 269 268 268 268 268 267 268 268 268 268 268 269 269 270 271 272 272 272 270 267 266 270 274 277 280 282 283 283 284 285 285 285 285 285 284 283 283 284 284 284 284 284 284 283 282 282 282 281 281 282 282 283 283 284 284 284
263 264 264 261 259 260 263 265 263 262 261 260 258 256 254 255 258 260 262 265 267 266 265 265 264 264 264 264 264 264 264 264 264 264 265 266 267 267 266 266 267 268 271 274 276 276 275 273 269 269 271 274 277 281 283 282 282 284 285 286 286 286 286 285 285 284 284 284 285 285 285 284 284 283 283 283 282 282 282 281 282 282 282 283 283
263 263 263 263 261 262 263 264 263 261 260 260 258 257 256 257 258 260 261 263 263 263 263 263 262 262 262 263 262 262 264 264 262 262 263 264 265 265 264 265 267 271 274 276 277 277 276 274 272 271 271 272 276 280 281 281 283 285 287 287 287 287 286 286 286 285 285 285 285 285 284 284 283 283 283 283 282 282 282 282 282 282 282 283 283
262 262 263 263 263 262 262 262 262 261 260 259 258 257 258 260 260 260 259 259 261 263 264 263 263 263 264 264 263 263 265 265 263 263 264 264 264 264 265 267 269 271 272 273 273 274 273 273 272 272 271 272 274 277 279 281 284 286 287 287 287 287 286 286 286 285 285 285 285 285 284 283 283 282 282 282 282 282 282 282 282 282 283 283 283
263 263 264 264 264 264 263 262 262 263 262 261 260 260 261 262 263 263 263 264 265 266 266 265 264 265 265 266 265 263 264 264 264 264 263 262 262 263 263 264 266 266 266 267 268 268 269 270 271 271 271 271 274 276 278 281 284 285 285 285 285 285 285 285 284 284 284 284 284 283 283 283 282 282 282 282 282 282 282 282 283 283 283 283 283
263 263 263 264 264 265 265 265 266 266 265 264 264 264 264 265 265 265 267 268 269 269 268 268 267 267 267 267 266 265 264 263 263 262 261 260 260 261 261 262 262 262 263 264 265 267 269 270 271 271 272 273 274 276 278 280 281 282 283 283 283 283 283 283 282 282 282 282 282 281 281 281 282 282 282 282 282 282 282 282 283 283 283 284 284
263 263 264 264 264 265 265 266 266 266 266 266 266 266 266 266 266 265 266 269 270 270 270 270 270 270 270 269 268 267 266 264 263 262 262 262 262 263 263 264 265 265 266 267 269 270 271 271 272 272 273 274 275 276 277 279 280 280 281 281 281 281 280 280 280 280 280 280 280 280 280 280 280 281 281 281 281 282 282 282 282 283 283 284 284
260 261 261 261 261 262 262 262 263 264 265 266 266 266 266 266 266 265 265 267 270 273 273 272 271 271 272 272 272 270 268 267 266 265 265 265 265 264 265 266 267 267 268 269 270 271 271 271 272 273 274 275 276 277 278 279 279 279 279 279 278 278 278 278 278 278 278 278 278 279 279 279 279 279 280 280 281 281 282 282 282 282 283 283 284
257 259 260 261 262 262 262 262 263 263 265 266 266 266 266 266 266 266 266 265 266 268 270 271 271 270 271 272 272 271 270 270 269 267 267 266 265 265 265 266 267 268 268 269 269 270 271 272 274 275 276 277 278 278 278 278 278 277 277 277 276 276 276 276 276 276 277 277 277 278 278 278 278 278 279 280 280 281 281 281 282 282 282 283 283
258 261 264 265 265 265 265 265 265 266 266 267 267 267 267 267 267 268 268 266 264 263 264 265 266 267 268 267 266 267 268 267 265 264 265 265 265 266 267 267 268 269 271 271 272 273 274 274 275 276 277 277 277 277 277 276 276 275 275 274 274 275 275 275 275 275 276 276 277 277 277 277 277 278 278 279 279 280 280 281 282 282 283 283 283
260 262 265 266 267 267 267 267 267 267 267 267 267 267 267 267 267 268 268 267 265 264 264 264 264 265 266 264 261 261 261 261 262 263 265 266 267 268 269 269 270 272 273 274 275 276 276 276 276 276 277 276 276 276 275 275 274 273 273 273 273 273 274 275 275 276 276 276 276 276 275 275 275 276 276 277 279 280 281 281 282 282 283 283 283
261 263 265 267 268 268 268 268 267 267 267 266 266 266 266 266 266 266 266 265 265 264 264 263 263 263 263 262 261 260 260 261 262 264 265 266 268 269 270 271 272 273 274 275 276 276 276 276 276 276 276 276 276 275 275 274 273 273 273 273 273 273 274 274 275 275 275 275 274 274 273 273 273 274 275 276 278 279 280 281 282 282 281 282 283
264 265 266 267 268 268 268 267 266 266 265 265 264 264 264 264 264 264 264 263 263 263 263 262 262 262 261 261 261 261 261 261 262 263 264 265 267 268 269 270 271 272 273 274 274 274 274 275 275 275 275 276 276 276 275 275 274 274 274 274 274 274 274 273 273 273 273 272 271 271 271 271 271 272 274 275 276 278 279 280 280 280 280 282 285
267 267 267 267 267 268 267 267 266 266 265 264 264 263 263 263 263 262 262 262 262 262 262 262 262 262 262 262 262 262 261 261 262 263 264 265 265 266 267 268 269 271 272 272 272 272 272 272 273 274 275 276 277 277 277 276 276 275 275 274 274 273 272 271 270 270 269 269 268 268 269 269 270 272 273 274 276 277 277 277 277 277 279 284 287
267 267 267 267 267 267 267 267 267 266 266 265 264 264 264 263 263 262 262 261 261 261 261 261 261 262 262 262 262 262 261 261 262 263 264 264 264 264 265 266 268 269 269 269 269 269 269 270 271 273 275 276 277 278 278 278 277 275 274 273 272 271 270 269 268 267 266 266 266 267 267 268 269 270 272 273 274 274 272 271 272 276 281 285 287
265 265 265 265 265 265 266 266 266 266 266 265 265 265 264 264 263 263 262 262 262 262 261 260 261 262 263 264 263 261 259 259 260 260 261 263 263 264 265 266 266 267 266 265 266 267 267 268 270 272 274 276 277 278 278 277 276 274 273 272 271 270 269 267 266 265 264 264 264 264 265 266 267 269 270 270 268 266 265 267 272 277 281 285 287
264 264 264 264 263 263 263 263 264 264 265 265 266 265 264 263 263 263 263 262 262 261 262 262 261 260 259 260 261 260 257 256 257 258 259 261 263 265 266 265 265 264 263 263 263 264 266 267 268 270 272 274 276 277 276 275 275 274 273 272 271 269 268 266 264 263 262 261 261 261 262 263 264 265 263 261 258 258 260 266 273 278 282 285 290
264 263 262 262 261 260 260 260 262 263 265 265 265 265 263 261 260 260 259 257 254 253 256 261 261 256 250 248 250 253 254 254 255 257 258 260 262 264 265 264 263 262 262 261 260 261 263 265 266 268 270 273 274 274 274 274 274 273 273 271 270 268 267 264 261 259 258 257 256 257 257 257 257 254 252 252 252 255 260 267 274 280 284 288 293
260 258 257 257 257 256 255 256 259 262 263 263 263 261 260 258 255 251 248 247 245 245 246 250 253 252 249 245 246 249 252 253 254 255 256 258 259 260 261 261 260 259 259 258 257 258 260 262 263 265 268 270 271 272 273 273 273 273 272 271 269 266 263 259 255 253 251 251 251 251 250 249 247 245 245 247 249 254 261 270 277 282 287 290 297
256 251 249 249 250 251 251 251 254 257 259 260 260 258 256 255 253 249 245 244 244 244 244 244 245 246 247 245 244 246 250 253 253 254 256 257 258 258 258 257 257 256 256 255 255 255 256 258 259 262 264 266 267 269 270 271 272 272 271 268 263 258 253 249 246 245 245 245 245 245 244 243 242 241 242 245 247 253 263 272 278 283 287 292 303
250 244 240 241 243 245 245 246 248 252 256 258 258 258 257 256 255 254 251 250 250 248 245 243 243 244 245 244 242 244 248 253 255 256 257 257 257 257 256 255 255 254 254 253 252 252 253 254 256 258 261 263 265 266 268 270 270 268 264 258 250 244 241 239 238 239 241 243 244 244 243 242 241 241 242 242 245 252 263 272 279 283 287 295 310
242 237 236 238 240 240 241 243 246 251 256 258 260 261 261 259 257 256 255 254 255 252 244 238 238 243 244 242 241 243 247 252 256 258 259 260 260 258 256 254 253 252 251 250 249 249 250 251 253 256 258 260 262 265 266 266 264 257 248 241 236 234 233 234 236 240 244 246 247 246 243 241 241 242 241 241 244 252 263 271 278 281 286 299 316
232 230 231 233 235 237 240 244 248 252 256 258 260 260 260 258 257 256 256 256 255 253 247 241 240 242 244 243 243 244 248 253 258 261 263 262 261 258 256 253 251 249 247 246 246 246 247 248 251 253 255 258 260 262 260 255 247 238 232 229 229 230 232 236 241 246 249 250 250 248 244 241 241 241 239 239 244 252 261 270 276 279 286 302 320
215 224 229 233 237 240 243 248 252 254 257 259 260 260 260 260 259 257 257 257 256 255 252 248 245 246 248 250 251 251 253 257 261 264 263 260 257 255 254 252 248 245 242 241 242 243 244 246 248 250 252 255 256 252 245 235 227 223 224 225 228 231 237 243 248 251 252 252 251 248 244 242 241 240 238 239 242 249 258 268 274 278 286 303 323
58 75 233 251 253 253 254 256 259 261 262 264 264 263 262 262 259 258 258 259 258 257 255 252 249 248 250 252 253 254 254 257 261 262 258 250 244 242 243 244 244 241 238 236 237 239 241 242 244 247 249 248 242 232 223 218 217 219 222 226 230 237 244 249 252 253 253 253 252 249 246 243 241 240 238 238 240 246 255 264 271 277 286 301 322
38 40 32 345 291 276 271 268 269 270 269 268 267 268 265 261 258 258 260 259 257 255 251 247 245 246 247 247 248 250 252 253 255 253 248 241 236 236 237 240 240 238 234 232 232 234 237 238 240 241 238 229 219 213 212 213 216 220 224 229 236 243 248 251 254 254 254 254 253 250 247 243 240 239 238 237 239 243 252 260 267 273 280 294 316
41 48 51 45 21 330 297 287 288 292 286 269 252 251 249 241 240 245 248 246 242 236 232 232 236 239 240 240 240 239 238 239 239 237 235 235 235 234 235 235 233 229 228 229 229 230 231 231 229 225 217 210 206 208 211 214 218 222 228 234 241 247 251 253 254 255 255 254 253 250 247 242 239 237 237 237 237 241 249 257 263 267 272 284 304
60 61 60 56 53 55 52 48 42 35 34 137 188 214 230 240 253 252 236 219 212 210 214 226 233 226 218 215 211 203 196 195 207 217 219 223 228 228 226 224 222 221 221 221 220 220 222 221 216 210 206 204 207 211 214 217 221 226 232 239 244 248 250 252 252 253 254 254 253 250 246 242 239 238 237 236 237 240 246 254 258 260 264 273 288
53 49 44 40 42 49 50 45 43 45 54 82 144 219 245 291 348 357 287 209 219 223 227 239 232 215 206 204 204 202 202 210 223 227 222 219 215 207 200 199 205 209 208 208 211 215 217 216 211 207 205 207 211 215 218 222 226 231 237 242 246 249 250 251 252 252 252 253 252 249 246 242 241 240 239 238 238 240 245 252 256 257 259 264 275
45 41 38 36 39 45 48 48 48 52 65 84 92 78 34 16 13 14 16 284 232 232 232 233 225 216 215 214 210 209 211 214 212 209 207 206 200 192 188 192 200 203 203 207 213 218 217 213 209 207 209 213 217 221 224 227 232 237 242 246 248 249 251 251 251 252 252 251 250 248 246 243 242 243 243 243 242 242 246 251 255 256 256 259 266
43 39 39 38 36 33 32 34 40 53 73 86 71 40 27 16 8 5 2 344 283 246 235 231 227 226 229 229 219 213 213 211 206 200 195 192 195 200 204 208 209 209 212 216 219 218 214 210 210 212 216 220 224 227 230 234 238 243 246 249 249 250 250 251 251 253 253 251 250 249 247 245 245 246 247 247 246 246 247 251 255 256 255 255 259